| time (UTC) | temp F | wind direction | speed MPH | gust MPH | rain 1hr in | rain 24hr in | rain mn in | humidity % | barometer mb |
| 20260507141557 | 62 | 56 | 0.0 | 7.0 | 0.00 | 0.01 | 0.01 | 94 | 1016.7 |
| 20260507140051 | 61 | 0 | 1.0 | 9.0 | 0.00 | 0.01 | 0.01 | 94 | 1016.5 |
| 20260507134554 | 61 | 316 | 1.0 | 6.0 | 0.00 | 0.01 | 0.01 | 94 | 1016.4 |
| 20260507133046 | 61 | 61 | 1.0 | 4.0 | 0.00 | 0.01 | 0.01 | 94 | 1016.4 |
| 20260507131546 | 61 | 355 | 1.0 | 5.0 | 0.00 | 0.01 | 0.01 | 94 | 1016.4 |
| 20260507130046 | 61 | 39 | 1.0 | 5.0 | 0.00 | 0.01 | 0.01 | 94 | 1016.5 |
| 20260507124544 | 61 | 66 | 1.0 | 8.0 | 0.00 | 0.01 | 0.01 | 94 | 1016.1 |
| 20260507123051 | 61 | 335 | 1.0 | 9.0 | 0.00 | 0.01 | 0.01 | 94 | 1015.8 |
| 20260507121549 | 61 | 65 | 3.0 | 9.0 | 0.00 | 0.01 | 0.01 | 94 | 1015.9 |
| 20260507120048 | 61 | 360 | 1.0 | 4.0 | 0.00 | 0.01 | 0.01 | 94 | 1015.6 |
| 20260507114555 | 61 | 0 | 1.0 | 7.0 | 0.00 | 0.01 | 0.01 | 94 | 1015.7 |
| 20260507113051 | 61 | 323 | 2.0 | 8.0 | 0.00 | 0.01 | 0.01 | 94 | 1015.4 |
| 20260507111551 | 61 | 313 | 2.0 | 8.0 | 0.00 | 0.01 | 0.01 | 94 | 1015.2 |
| 20260507110054 | 62 | 323 | 1.0 | 5.0 | 0.00 | 0.01 | 0.01 | 94 | 1015.1 |
| 20260507104555 | 62 | 43 | 1.0 | 10.0 | 0.00 | 0.01 | 0.01 | 94 | 1014.6 |
| 20260507103055 | 62 | 298 | 1.0 | 12.0 | 0.00 | 0.01 | 0.01 | 94 | 1014.5 |
| 20260507101552 | 63 | 336 | 3.0 | 11.0 | 0.00 | 0.01 | 0.01 | 94 | 1014.4 |
| 20260507100055 | 64 | 165 | 3.0 | 9.0 | 0.00 | 0.01 | 0.01 | 94 | 1014.3 |
| 20260507094550 | 64 | 12 | 2.0 | 11.0 | 0.00 | 0.01 | 0.01 | 94 | 1013.8 |
| 20260507093057 | 65 | 355 | 3.0 | 8.0 | 0.00 | 0.01 | 0.01 | 94 | 1013.7 |
| 20260507091548 | 65 | 345 | 3.0 | 8.0 | 0.01 | 0.01 | 0.01 | 93 | 1013.7 |
| 20260507090045 | 66 | 0 | 1.0 | 5.0 | 0.01 | 0.01 | 0.01 | 93 | 1013.1 |
| 20260507084550 | 66 | 5 | 1.0 | 4.0 | 0.01 | 0.01 | 0.01 | 93 | 1013.3 |
| 20260507083049 | 67 | 56 | 1.0 | 7.0 | 0.01 | 0.01 | 0.01 | 93 | 1013.2 |
| 20260507081550 | 68 | 350 | 2.0 | 8.0 | 0.00 | 0.00 | 0.00 | 93 | 1013.4 |
| 20260507080052 | 69 | 5 | 1.0 | 9.0 | 0.00 | 0.00 | 0.00 | 92 | 1013.1 |
| 20260507074552 | 70 | 321 | 4.0 | 11.0 | 0.00 | 0.00 | 0.00 | 92 | 1013.2 |
| 20260507073100 | 75 | 94 | 3.0 | 9.0 | 0.00 | 0.00 | 0.00 | 92 | 1012.9 |
| 20260507071556 | 78 | 0 | 0.0 | 1.0 | 0.00 | 0.00 | 0.00 | 93 | 1012.7 |
| 20260507070058 | 78 | 0 | 0.0 | 2.0 | 0.00 | 0.00 | 0.00 | 93 | 1012.9 |
| 20260507064551 | 78 | 0 | 0.0 | 3.0 | 0.00 | 0.00 | 0.00 | 93 | 1013.0 |
| 20260507063050 | 78 | 0 | 0.0 | 2.0 | 0.00 | 0.00 | 0.00 | 93 | 1013.1 |
| 20260507061549 | 78 | 0 | 0.0 | 1.0 | 0.00 | 0.00 | 0.00 | 93 | 1013.4 |
| 20260507060056 | 78 | 0 | 0.0 | 2.0 | 0.00 | 0.00 | 0.00 | 93 | 1013.1 |
| 20260507054549 | 78 | 0 | 0.0 | 2.0 | 0.00 | 0.00 | 0.00 | 93 | 1013.0 |
| 20260507053053 | 78 | 0 | 0.0 | 3.0 | 0.00 | 0.00 | 0.00 | 93 | 1013.0 |
| 20260507051545 | 78 | 0 | 0.0 | 2.0 | 0.00 | 0.00 | 0.00 | 93 | 1012.8 |
| 20260507050052 | 78 | 0 | 0.0 | 2.0 | 0.00 | 0.00 | 0.00 | 93 | 1012.8 |
| 20260507044557 | 78 | 0 | 0.0 | 2.0 | 0.00 | 0.00 | 0.00 | 93 | 1012.7 |
| 20260507043047 | 78 | 0 | 0.0 | 3.0 | 0.00 | 0.00 | 0.00 | 93 | 1012.7 |
| 20260507041548 | 78 | 0 | 0.0 | 5.0 | 0.00 | 0.00 | 0.00 | 93 | 1012.8 |
| 20260507040047 | 78 | 0 | 0.0 | 5.0 | 0.00 | 0.00 | 0.00 | 93 | 1012.7 |
| 20260507034551 | 78 | 0 | 0.0 | 3.0 | 0.00 | 0.00 | 0.00 | 92 | 1012.9 |
| 20260507033048 | 78 | 0 | 0.0 | 6.0 | 0.00 | 0.00 | 0.00 | 92 | 1013.0 |
| 20260507031549 | 78 | 0 | 0.0 | 8.0 | 0.00 | 0.00 | 0.00 | 92 | 1012.8 |
| 20260507030057 | 78 | 169 | 2.0 | 6.0 | 0.00 | 0.00 | 0.00 | 92 | 1012.4 |
| 20260507024556 | 78 | 0 | 1.0 | 7.0 | 0.00 | 0.00 | 0.00 | 92 | 1012.3 |
| 20260507023047 | 78 | 186 | 3.0 | 11.0 | 0.00 | 0.00 | 0.00 | 92 | 1011.9 |
| 20260507021549 | 79 | 191 | 3.0 | 8.0 | 0.00 | 0.00 | 0.00 | 92 | 1011.7 |
| 20260507020050 | 79 | 166 | 4.0 | 11.0 | 0.00 | 0.00 | 0.00 | 92 | 1011.7 |
| 20260507014545 | 79 | 153 | 2.0 | 12.0 | 0.00 | 0.00 | 0.00 | 92 | 1011.5 |
| 20260507013057 | 79 | 157 | 3.0 | 8.0 | 0.00 | 0.00 | 0.00 | 92 | 1011.3 |
| 20260507011553 | 79 | 178 | 5.0 | 10.0 | 0.00 | 0.00 | 0.00 | 92 | 1010.9 |
| 20260507010048 | 79 | 162 | 3.0 | 9.0 | 0.00 | 0.00 | 0.00 | 91 | 1011.1 |
| 20260507004549 | 79 | 163 | 3.0 | 10.0 | 0.00 | 0.00 | 0.00 | 91 | 1011.1 |
| 20260507003046 | 80 | 176 | 6.0 | 12.0 | 0.00 | 0.00 | 0.00 | 91 | 1010.9 |
| 20260507001547 | 80 | 155 | 5.0 | 14.0 | 0.00 | 0.00 | 0.00 | 91 | 1010.8 |
| 20260507000053 | 80 | 158 | 4.0 | 13.0 | 0.00 | 0.00 | 0.00 | 90 | 1010.9 |
| 20260506234554 | 80 | 173 | 4.0 | 11.0 | 0.00 | 0.00 | 0.00 | 90 | 1010.7 |
| 20260506233049 | 80 | 157 | 3.0 | 10.0 | 0.00 | 0.00 | 0.00 | 90 | 1010.9 |
| 20260506231546 | 80 | 174 | 4.0 | 12.0 | 0.00 | 0.00 | 0.00 | 90 | 1010.8 |
| 20260506230049 | 81 | 148 | 4.0 | 12.0 | 0.00 | 0.00 | 0.00 | 90 | 1010.9 |
| 20260506224600 | 81 | 155 | 4.0 | 9.0 | 0.00 | 0.00 | 0.00 | 90 | 1010.8 |
| 20260506223048 | 81 | 161 | 5.0 | 13.0 | 0.00 | 0.00 | 0.00 | 90 | 1010.7 |
| 20260506221548 | 81 | 158 | 4.0 | 13.0 | 0.00 | 0.00 | 0.00 | 91 | 1010.8 |
| 20260506220049 | 80 | 144 | 4.0 | 12.0 | 0.00 | 0.00 | 0.00 | 91 | 1011.0 |
| 20260506214605 | 80 | 157 | 3.0 | 11.0 | 0.00 | 0.00 | 0.00 | 90 | 1011.0 |
| 20260506213048 | 81 | 0 | 4.0 | 8.0 | 0.00 | 0.00 | 0.00 | 90 | 1011.3 |
| 20260506211548 | 81 | 123 | 3.0 | 9.0 | 0.00 | 0.00 | 0.00 | 89 | 1011.5 |
| 20260506210055 | 81 | 157 | 3.0 | 11.0 | 0.00 | 0.00 | 0.00 | 89 | 1011.5 |
| 20260506204559 | 82 | 156 | 4.0 | 13.0 | 0.00 | 0.00 | 0.00 | 89 | 1011.3 |
| 20260506203052 | 82 | 159 | 5.0 | 12.0 | 0.00 | 0.00 | 0.00 | 89 | 1011.5 |
| 20260506201549 | 83 | 155 | 3.0 | 11.0 | 0.00 | 0.00 | 0.00 | 89 | 1011.6 |
| 20260506200044 | 83 | 0 | 0.0 | 7.0 | 0.00 | 0.00 | 0.00 | 88 | 1011.6 |
| 20260506194559 | 83 | 0 | 0.0 | 4.0 | 0.00 | 0.00 | 0.00 | 88 | 1012.0 |
| 20260506193052 | 83 | 0 | 0.0 | 3.0 | 0.00 | 0.00 | 0.00 | 88 | 1012.1 |
| 20260506191551 | 83 | 0 | 0.0 | 1.0 | 0.00 | 0.00 | 0.00 | 88 | 1012.6 |
| 20260506190049 | 84 | 0 | 0.0 | 6.0 | 0.00 | 0.00 | 0.00 | 88 | 1012.9 |
| 20260506184550 | 83 | 0 | 3.0 | 8.0 | 0.00 | 0.00 | 0.00 | 89 | 1013.1 |
| 20260506183052 | 83 | 161 | 4.0 | 11.0 | 0.00 | 0.00 | 0.00 | 88 | 1013.3 |
| 20260506181548 | 83 | 167 | 6.0 | 13.0 | 0.00 | 0.00 | 0.00 | 88 | 1013.4 |
| 20260506180050 | 82 | 171 | 4.0 | 11.0 | 0.00 | 0.00 | 0.00 | 89 | 1013.4 |
| 20260506174549 | 82 | 162 | 4.0 | 9.0 | 0.00 | 0.00 | 0.00 | 89 | 1013.7 |
| 20260506173051 | 82 | 153 | 6.0 | 11.0 | 0.00 | 0.00 | 0.00 | 89 | 1013.7 |
| 20260506171555 | 82 | 155 | 4.0 | 12.0 | 0.00 | 0.00 | 0.00 | 90 | 1013.8 |
| 20260506170048 | 80 | 130 | 3.0 | 10.0 | 0.00 | 0.00 | 0.00 | 91 | 1013.9 |
| 20260506164547 | 80 | 162 | 2.0 | 7.0 | 0.00 | 0.00 | 0.00 | 91 | 1014.2 |
| 20260506163049 | 80 | 168 | 4.0 | 11.0 | 0.00 | 0.00 | 0.00 | 91 | 1014.1 |
| 20260506161556 | 80 | 163 | 4.0 | 8.0 | 0.00 | 0.00 | 0.00 | 92 | 1014.0 |
| 20260506160048 | 79 | 157 | 1.0 | 5.0 | 0.00 | 0.00 | 0.00 | 93 | 1014.1 |
| 20260506154608 | 78 | 188 | 4.0 | 7.0 | 0.00 | 0.00 | 0.00 | 93 | 1014.0 |
| 20260506153048 | 78 | 153 | 3.0 | 9.0 | 0.00 | 0.00 | 0.00 | 92 | 1013.8 |
| 20260506151541 | 78 | 164 | 5.0 | 11.0 | 0.00 | 0.00 | 0.00 | 92 | 1013.6 |
| 20260506150045 | 78 | 163 | 4.0 | 11.0 | 0.00 | 0.00 | 0.00 | 93 | 1013.5 |
| 20260506144558 | 77 | 0 | 2.0 | 6.0 | 0.00 | 0.00 | 0.00 | 93 | 1013.4 |
| 20260506143050 | 77 | 156 | 4.0 | 9.0 | 0.00 | 0.00 | 0.00 | 93 | 1013.6 |